| time (UTC) | temp F | wind direction | speed MPH | gust MPH | rain 1hr in | rain 24hr in | rain mn in | humidity % | barometer mb |
| 20260901134007 | 80 | 94 | 12.0 | 30.0 | 0.00 | 0.00 | 0.00 | 49 | 1017.9 |
| 20260901133508 | 81 | 134 | 15.0 | 27.0 | 0.00 | 0.00 | 0.00 | 49 | 1017.7 |
| 20260901133011 | 80 | 117 | 15.0 | 26.0 | 0.00 | 0.00 | 0.00 | 48 | 1017.8 |
| 20260901132506 | 80 | 99 | 16.0 | 33.0 | 0.00 | 0.00 | 0.00 | 49 | 1017.7 |
| 20260901132007 | 80 | 119 | 17.0 | 33.0 | 0.00 | 0.00 | 0.00 | 47 | 1017.9 |
| 20260901131507 | 80 | 121 | 15.0 | 29.0 | 0.00 | 0.00 | 0.00 | 49 | 1017.7 |
| 20260901131006 | 80 | 144 | 14.0 | 29.0 | 0.00 | 0.00 | 0.00 | 49 | 1017.9 |
| 20260901130505 | 80 | 104 | 14.0 | 29.0 | 0.00 | 0.00 | 0.00 | 49 | 1018.0 |
| 20260901130005 | 80 | 80 | 18.0 | 32.0 | 0.00 | 0.00 | 0.00 | 48 | 1017.9 |
| 20260901125504 | 80 | 134 | 17.0 | 28.0 | 0.00 | 0.00 | 0.00 | 47 | 1018.0 |
| 20260901125004 | 80 | 130 | 13.0 | 33.0 | 0.00 | 0.00 | 0.00 | 49 | 1018.0 |
| 20260901124503 | 80 | 128 | 21.0 | 33.0 | 0.00 | 0.00 | 0.00 | 47 | 1017.9 |
| 20260901124001 | 80 | 84 | 19.0 | 30.0 | 0.00 | 0.00 | 0.00 | 48 | 1018.1 |
| 20260901123502 | 80 | 90 | 18.0 | 28.0 | 0.00 | 0.00 | 0.00 | 47 | 1018.0 |
| 20260901123100 | 80 | 120 | 14.0 | 25.0 | 0.00 | 0.00 | 0.00 | 47 | 1018.3 |
| 20260901122559 | 80 | 109 | 12.0 | 31.0 | 0.00 | 0.00 | 0.00 | 49 | 1018.2 |
| 20260901122102 | 80 | 71 | 17.0 | 32.0 | 0.00 | 0.00 | 0.00 | 48 | 1018.3 |
| 20260901121559 | 81 | 96 | 12.0 | 27.0 | 0.00 | 0.00 | 0.00 | 48 | 1018.2 |
| 20260901121057 | 81 | 78 | 15.0 | 27.0 | 0.00 | 0.00 | 0.00 | 47 | 1018.4 |
| 20260901120556 | 81 | 78 | 10.0 | 25.0 | 0.00 | 0.00 | 0.00 | 48 | 1018.6 |
| 20260901120119 | 80 | 100 | 14.0 | 25.0 | 0.00 | 0.00 | 0.00 | 48 | 1018.4 |
| 20260901115557 | 80 | 112 | 14.0 | 29.0 | 0.00 | 0.00 | 0.00 | 49 | 1018.6 |
| 20260901115052 | 80 | 120 | 16.0 | 29.0 | 0.00 | 0.00 | 0.00 | 48 | 1018.4 |
| 20260901114551 | 80 | 161 | 13.0 | 28.0 | 0.00 | 0.00 | 0.00 | 46 | 1018.5 |
| 20260901114049 | 80 | 104 | 17.0 | 28.0 | 0.00 | 0.00 | 0.00 | 47 | 1018.6 |
| 20260901113548 | 80 | 126 | 17.0 | 28.0 | 0.00 | 0.00 | 0.00 | 46 | 1018.7 |
| 20260901113055 | 80 | 132 | 13.0 | 24.0 | 0.00 | 0.00 | 0.00 | 48 | 1018.8 |
| 20260901112548 | 79 | 138 | 17.0 | 26.0 | 0.00 | 0.00 | 0.00 | 48 | 1018.7 |
| 20260901112044 | 79 | 112 | 14.0 | 26.0 | 0.00 | 0.00 | 0.00 | 49 | 1018.9 |
| 20260901111544 | 79 | 110 | 15.0 | 25.0 | 0.00 | 0.00 | 0.00 | 50 | 1018.8 |
| 20260901111043 | 79 | 344 | 8.0 | 19.0 | 0.00 | 0.00 | 0.00 | 56 | 1019.0 |
| 20260901110541 | 78 | 126 | 6.0 | 19.0 | 0.00 | 0.00 | 0.00 | 59 | 1019.0 |
| 20260901110041 | 77 | 111 | 6.0 | 15.0 | 0.00 | 0.00 | 0.00 | 58 | 1018.9 |
| 20260901105541 | 77 | 275 | 5.0 | 20.0 | 0.00 | 0.00 | 0.00 | 70 | 1018.7 |
| 20260901105040 | 76 | 173 | 12.0 | 20.0 | 0.00 | 0.00 | 0.00 | 64 | 1018.8 |
| 20260901104546 | 76 | 318 | 2.0 | 11.0 | 0.00 | 0.00 | 0.00 | 73 | 1019.0 |
| 20260901104038 | 77 | 350 | 4.0 | 18.0 | 0.00 | 0.00 | 0.00 | 68 | 1018.9 |
| 20260901103536 | 78 | 339 | 7.0 | 24.0 | 0.00 | 0.00 | 0.00 | 56 | 1018.6 |
| 20260901103034 | 78 | 275 | 11.0 | 24.0 | 0.00 | 0.00 | 0.00 | 66 | 1018.8 |
| 20260901102533 | 77 | 90 | 7.0 | 23.0 | 0.00 | 0.00 | 0.00 | 62 | 1018.8 |
| 20260901102032 | 76 | 323 | 8.0 | 23.0 | 0.00 | 0.00 | 0.00 | 59 | 1018.7 |
| 20260901101531 | 77 | 103 | 11.0 | 30.0 | 0.00 | 0.00 | 0.00 | 52 | 1018.3 |
| 20260901101028 | 76 | 107 | 16.0 | 25.0 | 0.00 | 0.00 | 0.00 | 56 | 1018.2 |
| 20260901100529 | 74 | 113 | 4.0 | 20.0 | 0.00 | 0.00 | 0.00 | 72 | 1018.5 |
| 20260901100025 | 73 | 109 | 9.0 | 18.0 | 0.00 | 0.00 | 0.00 | 76 | 1018.4 |
| 20260901095525 | 73 | 265 | 3.0 | 14.0 | 0.00 | 0.00 | 0.00 | 77 | 1018.5 |
| 20260901095027 | 72 | 328 | 3.0 | 14.0 | 0.00 | 0.00 | 0.00 | 79 | 1018.4 |
| 20260901094524 | 72 | 263 | 2.0 | 8.0 | 0.00 | 0.00 | 0.00 | 80 | 1018.4 |
| 20260901094023 | 72 | 301 | 2.0 | 8.0 | 0.00 | 0.00 | 0.00 | 79 | 1018.3 |
| 20260901093524 | 71 | 340 | 3.0 | 6.0 | 0.00 | 0.00 | 0.00 | 79 | 1018.2 |
| 20260901093021 | 72 | 321 | 2.0 | 6.0 | 0.00 | 0.00 | 0.00 | 79 | 1018.3 |
| 20260901092519 | 72 | 323 | 1.0 | 11.0 | 0.00 | 0.00 | 0.00 | 78 | 1018.2 |
| 20260901092020 | 71 | 336 | 4.0 | 11.0 | 0.00 | 0.00 | 0.00 | 76 | 1018.1 |
| 20260901091519 | 71 | 90 | 1.0 | 5.0 | 0.00 | 0.00 | 0.00 | 74 | 1018.2 |
| 20260901091015 | 72 | 300 | 2.0 | 8.0 | 0.00 | 0.00 | 0.00 | 72 | 1018.0 |
| 20260901090513 | 72 | 126 | 3.0 | 8.0 | 0.00 | 0.00 | 0.00 | 70 | 1018.2 |
| 20260901090018 | 72 | 310 | 2.0 | 8.0 | 0.00 | 0.00 | 0.00 | 67 | 1017.9 |
| 20260901085512 | 72 | 321 | 1.0 | 6.0 | 0.00 | 0.00 | 0.00 | 65 | 1017.7 |
| 20260901085010 | 72 | 314 | 2.0 | 5.0 | 0.00 | 0.00 | 0.00 | 59 | 1017.8 |
| 20260901084508 | 71 | 355 | 2.0 | 6.0 | 0.00 | 0.00 | 0.00 | 64 | 1017.9 |
| 20260901084009 | 71 | 10 | 3.0 | 6.0 | 0.00 | 0.00 | 0.00 | 62 | 1017.8 |
| 20260901083506 | 71 | 349 | 1.0 | 8.0 | 0.00 | 0.00 | 0.00 | 60 | 1017.7 |
| 20260901083006 | 71 | 29 | 1.0 | 8.0 | 0.00 | 0.00 | 0.00 | 59 | 1017.8 |
| 20260901082503 | 72 | 325 | 2.0 | 4.0 | 0.00 | 0.00 | 0.00 | 53 | 1017.7 |
| 20260901082001 | 72 | 128 | 2.0 | 5.0 | 0.00 | 0.00 | 0.00 | 50 | 1017.7 |
| 20260901081600 | 72 | 360 | 1.0 | 6.0 | 0.00 | 0.00 | 0.00 | 44 | 1017.6 |
| 20260901081100 | 72 | 73 | 3.0 | 6.0 | 0.00 | 0.00 | 0.00 | 44 | 1017.5 |
| 20260901080557 | 72 | 355 | 2.0 | 8.0 | 0.00 | 0.00 | 0.00 | 44 | 1017.5 |
| 20260901080056 | 72 | 12 | 3.0 | 8.0 | 0.00 | 0.00 | 0.00 | 45 | 1017.4 |
| 20260901075554 | 72 | 331 | 1.0 | 3.0 | 0.00 | 0.00 | 0.00 | 43 | 1017.4 |
| 20260901075053 | 71 | 348 | 0.0 | 4.0 | 0.00 | 0.00 | 0.00 | 45 | 1017.5 |
| 20260901074552 | 70 | 92 | 0.0 | 4.0 | 0.00 | 0.00 | 0.00 | 47 | 1017.4 |
| 20260901074049 | 69 | 96 | 3.0 | 6.0 | 0.00 | 0.00 | 0.00 | 46 | 1017.3 |
| 20260901073548 | 68 | 99 | 3.0 | 6.0 | 0.00 | 0.00 | 0.00 | 48 | 1017.3 |
| 20260901073046 | 68 | 69 | 4.0 | 5.0 | 0.00 | 0.00 | 0.00 | 55 | 1017.3 |
| 20260901072546 | 68 | 96 | 2.0 | 7.0 | 0.00 | 0.00 | 0.00 | 50 | 1017.3 |
| 20260901072048 | 67 | 115 | 5.0 | 7.0 | 0.00 | 0.00 | 0.00 | 52 | 1017.3 |
| 20260901071559 | 67 | 48 | 2.0 | 6.0 | 0.00 | 0.00 | 0.00 | 64 | 1017.2 |
| 20260901071044 | 67 | 125 | 3.0 | 6.0 | 0.00 | 0.00 | 0.00 | 58 | 1017.2 |
| 20260901070544 | 67 | 82 | 2.0 | 5.0 | 0.00 | 0.00 | 0.00 | 60 | 1017.2 |
| 20260901070045 | 68 | 37 | 3.0 | 5.0 | 0.00 | 0.00 | 0.00 | 52 | 1017.1 |
| 20260901065543 | 67 | 126 | 1.0 | 4.0 | 0.00 | 0.00 | 0.00 | 51 | 1017.0 |
| 20260901065046 | 68 | 109 | 1.0 | 4.0 | 0.00 | 0.00 | 0.00 | 52 | 1017.0 |
| 20260901064543 | 68 | 60 | 2.0 | 4.0 | 0.00 | 0.00 | 0.00 | 50 | 1017.0 |
| 20260901064043 | 68 | 108 | 1.0 | 7.0 | 0.00 | 0.00 | 0.00 | 50 | 1016.9 |
| 20260901063542 | 68 | 116 | 5.0 | 7.0 | 0.00 | 0.00 | 0.00 | 49 | 1016.9 |
| 20260901063042 | 68 | 80 | 3.0 | 6.0 | 0.00 | 0.00 | 0.00 | 51 | 1016.9 |
| 20260901062540 | 67 | 86 | 3.0 | 8.0 | 0.00 | 0.00 | 0.00 | 54 | 1016.8 |
| 20260901062042 | 66 | 84 | 4.0 | 9.0 | 0.00 | 0.00 | 0.00 | 54 | 1016.9 |
| 20260901061541 | 65 | 115 | 7.0 | 9.0 | 0.00 | 0.00 | 0.00 | 61 | 1016.8 |
| 20260901061138 | 65 | 106 | 7.0 | 9.0 | 0.00 | 0.00 | 0.00 | 66 | 1016.9 |
| 20260901060539 | 65 | 108 | 5.0 | 7.0 | 0.00 | 0.00 | 0.00 | 70 | 1016.9 |
| 20260901060038 | 65 | 109 | 5.0 | 7.0 | 0.00 | 0.00 | 0.00 | 67 | 1016.9 |
| 20260901055538 | 65 | 111 | 4.0 | 6.0 | 0.00 | 0.00 | 0.00 | 68 | 1017.0 |
| 20260901055038 | 65 | 111 | 2.0 | 4.0 | 0.00 | 0.00 | 0.00 | 71 | 1016.9 |
| 20260901054538 | 65 | 111 | 1.0 | 7.0 | 0.00 | 0.00 | 0.00 | 70 | 1016.9 |
| 20260901054038 | 65 | 111 | 3.0 | 7.0 | 0.00 | 0.00 | 0.00 | 63 | 1016.8 |
| 20260901053537 | 65 | 111 | 3.0 | 8.0 | 0.00 | 0.00 | 0.00 | 71 | 1016.6 |
| 20260901053040 | 64 | 111 | 6.0 | 8.0 | 0.00 | 0.00 | 0.00 | 72 | 1016.6 |
| 20260901052537 | 64 | 113 | 6.0 | 9.0 | 0.00 | 0.00 | 0.00 | 75 | 1016.6 |
| 20260901052037 | 64 | 109 | 4.0 | 8.0 | 0.00 | 0.00 | 0.00 | 77 | 1016.6 |
| 20260901051533 | 64 | 114 | 6.0 | 7.0 | 0.00 | 0.00 | 0.00 | 77 | 1016.7 |
| 20260901051033 | 64 | 101 | 3.0 | 7.0 | 0.00 | 0.00 | 0.00 | 77 | 1016.8 |
| 20260901050534 | 65 | 111 | 5.0 | 7.0 | 0.00 | 0.00 | 0.00 | 77 | 1016.9 |
| 20260901050031 | 65 | 99 | 4.0 | 6.0 | 0.00 | 0.00 | 0.00 | 76 | 1016.9 |
| 20260901045532 | 65 | 98 | 2.0 | 4.0 | 0.00 | 0.00 | 0.00 | 76 | 1016.9 |
| 20260901045034 | 65 | 124 | 3.0 | 7.0 | 0.00 | 0.00 | 0.00 | 73 | 1016.9 |
| 20260901044531 | 65 | 121 | 3.0 | 7.0 | 0.00 | 0.00 | 0.00 | 72 | 1017.0 |
| 20260901044030 | 65 | 111 | 3.0 | 6.0 | 0.00 | 0.00 | 0.00 | 72 | 1016.9 |
| 20260901043532 | 65 | 114 | 3.0 | 6.0 | 0.00 | 0.00 | 0.00 | 67 | 1016.9 |
| 20260901043029 | 65 | 108 | 5.0 | 6.0 | 0.00 | 0.00 | 0.00 | 66 | 1016.9 |
| 20260901042531 | 65 | 113 | 4.0 | 7.0 | 0.00 | 0.00 | 0.00 | 69 | 1017.0 |
| 20260901042028 | 65 | 107 | 5.0 | 7.0 | 0.00 | 0.00 | 0.00 | 68 | 1017.0 |
| 20260901041527 | 65 | 107 | 5.0 | 8.0 | 0.00 | 0.00 | 0.00 | 69 | 1017.1 |
| 20260901041027 | 65 | 109 | 6.0 | 8.0 | 0.00 | 0.00 | 0.00 | 70 | 1017.1 |
| 20260901040526 | 65 | 109 | 7.0 | 8.0 | 0.00 | 0.00 | 0.00 | 70 | 1017.1 |
| 20260901040026 | 65 | 116 | 5.0 | 8.0 | 0.00 | 0.00 | 0.00 | 70 | 1017.2 |
| 20260901035526 | 65 | 116 | 5.0 | 8.0 | 0.00 | 0.00 | 0.00 | 68 | 1017.2 |
| 20260901035024 | 65 | 113 | 6.0 | 8.0 | 0.00 | 0.00 | 0.00 | 68 | 1017.2 |
| 20260901034523 | 65 | 107 | 6.0 | 8.0 | 0.00 | 0.00 | 0.00 | 70 | 1017.2 |
| 20260901034022 | 65 | 116 | 5.0 | 8.0 | 0.00 | 0.00 | 0.00 | 72 | 1017.3 |
| 20260901033524 | 66 | 124 | 3.0 | 7.0 | 0.00 | 0.00 | 0.00 | 72 | 1017.2 |
| 20260901033024 | 66 | 115 | 3.0 | 7.0 | 0.00 | 0.00 | 0.00 | 70 | 1017.2 |
| 20260901032521 | 65 | 109 | 5.0 | 8.0 | 0.00 | 0.00 | 0.00 | 67 | 1017.2 |
| 20260901032023 | 66 | 115 | 6.0 | 8.0 | 0.00 | 0.00 | 0.00 | 65 | 1017.3 |
| 20260901031530 | 66 | 111 | 5.0 | 7.0 | 0.00 | 0.00 | 0.00 | 65 | 1017.4 |
| 20260901031022 | 66 | 105 | 5.0 | 7.0 | 0.00 | 0.00 | 0.00 | 66 | 1017.4 |
| 20260901030517 | 66 | 116 | 4.0 | 7.0 | 0.00 | 0.00 | 0.00 | 64 | 1017.5 |
| 20260901030017 | 66 | 103 | 5.0 | 6.0 | 0.00 | 0.00 | 0.00 | 64 | 1017.5 |
| 20260901025521 | 66 | 114 | 4.0 | 7.0 | 0.00 | 0.00 | 0.00 | 65 | 1017.5 |
| 20260901025020 | 66 | 113 | 6.0 | 7.0 | 0.00 | 0.00 | 0.00 | 65 | 1017.6 |
| 20260901024516 | 66 | 99 | 5.0 | 7.0 | 0.00 | 0.00 | 0.00 | 62 | 1017.5 |
| 20260901024016 | 66 | 107 | 4.0 | 6.0 | 0.00 | 0.00 | 0.00 | 64 | 1017.6 |
| 20260901023515 | 66 | 112 | 3.0 | 6.0 | 0.00 | 0.00 | 0.00 | 66 | 1017.6 |
| 20260901023024 | 66 | 107 | 3.0 | 6.0 | 0.00 | 0.00 | 0.00 | 68 | 1017.6 |
| 20260901022517 | 66 | 105 | 3.0 | 6.0 | 0.00 | 0.00 | 0.00 | 65 | 1017.6 |
| 20260901022013 | 66 | 114 | 3.0 | 6.0 | 0.00 | 0.00 | 0.00 | 64 | 1017.7 |
| 20260901021517 | 66 | 107 | 3.0 | 7.0 | 0.00 | 0.00 | 0.00 | 63 | 1017.9 |
| 20260901021013 | 66 | 108 | 3.0 | 7.0 | 0.00 | 0.00 | 0.00 | 61 | 1017.9 |
| 20260901020513 | 66 | 108 | 4.0 | 6.0 | 0.00 | 0.00 | 0.00 | 58 | 1017.9 |
| 20260901020026 | 66 | 122 | 4.0 | 5.0 | 0.00 | 0.00 | 0.00 | 57 | 1017.8 |
| 20260901015510 | 66 | 124 | 3.0 | 4.0 | 0.00 | 0.00 | 0.00 | 60 | 1017.9 |
| 20260901015010 | 66 | 124 | 3.0 | 6.0 | 0.00 | 0.00 | 0.00 | 62 | 1017.9 |
| 20260901014511 | 66 | 124 | 3.0 | 6.0 | 0.00 | 0.00 | 0.00 | 64 | 1017.9 |
| 20260901014008 | 66 | 97 | 1.0 | 4.0 | 0.00 | 0.00 | 0.00 | 63 | 1018.0 |
| 20260901013513 | 66 | 121 | 3.0 | 4.0 | 0.00 | 0.00 | 0.00 | 67 | 1018.1 |
| 20260901013018 | 67 | 107 | 2.0 | 4.0 | 0.00 | 0.00 | 0.00 | 74 | 1018.2 |
| 20260901012506 | 67 | 111 | 2.0 | 4.0 | 0.00 | 0.00 | 0.00 | 71 | 1018.2 |
| 20260901012005 | 66 | 133 | 3.0 | 4.0 | 0.00 | 0.00 | 0.00 | 66 | 1018.3 |
| 20260901011513 | 67 | 86 | 2.0 | 7.0 | 0.00 | 0.00 | 0.00 | 67 | 1018.3 |
| 20260901011009 | 66 | 82 | 4.0 | 7.0 | 0.00 | 0.00 | 0.00 | 63 | 1018.4 |
| 20260901010504 | 66 | 109 | 5.0 | 6.0 | 0.00 | 0.00 | 0.00 | 66 | 1018.5 |
| 20260901010003 | 67 | 101 | 3.0 | 6.0 | 0.00 | 0.00 | 0.00 | 66 | 1018.6 |
| 20260901005502 | 67 | 113 | 3.0 | 6.0 | 0.00 | 0.00 | 0.00 | 64 | 1018.7 |
| 20260901005002 | 67 | 121 | 3.0 | 5.0 | 0.00 | 0.00 | 0.00 | 62 | 1018.8 |
| 20260901004502 | 67 | 127 | 3.0 | 5.0 | 0.00 | 0.00 | 0.00 | 62 | 1018.8 |
| 20260901004100 | 67 | 135 | 3.0 | 5.0 | 0.00 | 0.00 | 0.00 | 68 | 1018.9 |
| 20260901003600 | 66 | 132 | 2.0 | 7.0 | 0.00 | 0.00 | 0.00 | 68 | 1018.9 |
| 20260901003104 | 66 | 133 | 3.0 | 7.0 | 0.00 | 0.00 | 0.00 | 67 | 1019.0 |
| 20260901002600 | 66 | 119 | 4.0 | 7.0 | 0.00 | 0.00 | 0.00 | 70 | 1019.0 |
| 20260901002059 | 66 | 110 | 4.0 | 7.0 | 0.00 | 0.00 | 0.00 | 72 | 1018.9 |
| 20260901001613 | 66 | 117 | 3.0 | 7.0 | 0.00 | 0.00 | 0.00 | 74 | 1019.0 |
| 20260901001059 | 66 | 118 | 4.0 | 6.0 | 0.00 | 0.00 | 0.00 | 78 | 1019.0 |
| 20260901000555 | 66 | 118 | 2.0 | 3.0 | 0.00 | 0.00 | 0.00 | 83 | 1019.1 |
| 20260901000055 | 66 | 135 | 1.0 | 3.0 | 0.00 | 0.00 | 0.00 | 83 | 1019.1 |
| 20260831235555 | 66 | 134 | 1.0 | 2.0 | 0.00 | 0.00 | 0.00 | 85 | 1019.1 |
| 20260831235057 | 67 | 187 | 0.0 | 2.0 | 0.00 | 0.00 | 0.00 | 86 | 1019.1 |
| 20260831234555 | 67 | 162 | 1.0 | 2.0 | 0.00 | 0.00 | 0.00 | 85 | 1019.1 |
| 20260831234055 | 68 | 161 | 0.0 | 2.0 | 0.00 | 0.00 | 0.00 | 84 | 1019.2 |
| 20260831233554 | 68 | 161 | 0.0 | 3.0 | 0.00 | 0.00 | 0.00 | 83 | 1019.2 |
| 20260831233052 | 67 | 161 | 1.0 | 4.0 | 0.00 | 0.00 | 0.00 | 80 | 1019.1 |
| 20260831232551 | 67 | 122 | 2.0 | 6.0 | 0.00 | 0.00 | 0.00 | 77 | 1019.2 |
| 20260831232050 | 66 | 115 | 3.0 | 5.0 | 0.00 | 0.00 | 0.00 | 77 | 1019.1 |
| 20260831231551 | 66 | 135 | 3.0 | 5.0 | 0.00 | 0.00 | 0.00 | 79 | 1019.2 |
| 20260831231047 | 66 | 127 | 4.0 | 6.0 | 0.00 | 0.00 | 0.00 | 82 | 1019.2 |
| 20260831230545 | 65 | 113 | 3.0 | 4.0 | 0.00 | 0.00 | 0.00 | 87 | 1019.2 |
| 20260831230049 | 66 | 111 | 2.0 | 3.0 | 0.00 | 0.00 | 0.00 | 89 | 1019.3 |
| 20260831225544 | 67 | 146 | 1.0 | 3.0 | 0.00 | 0.00 | 0.00 | 91 | 1019.3 |
| 20260831225046 | 67 | 146 | 1.0 | 3.0 | 0.00 | 0.00 | 0.00 | 91 | 1019.3 |
| 20260831224544 | 67 | 153 | 2.0 | 3.0 | 0.00 | 0.00 | 0.00 | 91 | 1019.3 |
| 20260831224044 | 67 | 172 | 0.0 | 3.0 | 0.00 | 0.00 | 0.00 | 91 | 1019.2 |
| 20260831223544 | 68 | 172 | 1.0 | 5.0 | 0.00 | 0.00 | 0.00 | 90 | 1019.3 |
| 20260831223044 | 68 | 160 | 2.0 | 5.0 | 0.00 | 0.00 | 0.00 | 90 | 1019.2 |
| 20260831222542 | 67 | 148 | 2.0 | 5.0 | 0.00 | 0.00 | 0.00 | 90 | 1019.2 |
| 20260831222043 | 67 | 13 | 0.0 | 1.0 | 0.00 | 0.00 | 0.00 | 90 | 1019.2 |
| 20260831221554 | 67 | 13 | 0.0 | 1.0 | 0.00 | 0.00 | 0.00 | 90 | 1019.2 |
| 20260831221042 | 67 | 13 | 0.0 | 1.0 | 0.00 | 0.00 | 0.00 | 90 | 1019.1 |
| 20260831220541 | 67 | 13 | 0.0 | 1.0 | 0.00 | 0.00 | 0.00 | 90 | 1019.2 |
| 20260831220041 | 67 | 13 | 0.0 | 0.0 | 0.00 | 0.00 | 0.00 | 90 | 1019.1 |
| 20260831215542 | 67 | 13 | 0.0 | 2.0 | 0.00 | 0.00 | 0.00 | 90 | 1019.0 |
| 20260831215042 | 67 | 13 | 0.0 | 2.0 | 0.00 | 0.00 | 0.00 | 91 | 1018.9 |
| 20260831214552 | 68 | 13 | 1.0 | 2.0 | 0.00 | 0.00 | 0.00 | 91 | 1019.0 |
| 20260831214041 | 68 | 257 | 0.0 | 0.0 | 0.00 | 0.00 | 0.00 | 91 | 1018.9 |
| 20260831213541 | 68 | 257 | 0.0 | 1.0 | 0.00 | 0.00 | 0.00 | 90 | 1018.9 |
| 20260831213049 | 68 | 257 | 0.0 | 1.0 | 0.00 | 0.00 | 0.00 | 91 | 1019.0 |
| 20260831212540 | 68 | 257 | 0.0 | 1.0 | 0.00 | 0.00 | 0.00 | 91 | 1019.0 |
| 20260831212042 | 69 | 257 | 0.0 | 1.0 | 0.00 | 0.00 | 0.00 | 91 | 1018.9 |
| 20260831211541 | 69 | 257 | 0.0 | 1.0 | 0.00 | 0.00 | 0.00 | 91 | 1018.9 |
| 20260831211040 | 69 | 257 | 0.0 | 3.0 | 0.00 | 0.00 | 0.00 | 91 | 1018.8 |
| 20260831210539 | 69 | 257 | 1.0 | 3.0 | 0.00 | 0.00 | 0.00 | 91 | 1018.8 |
| 20260831210039 | 69 | 280 | 0.0 | 1.0 | 0.00 | 0.00 | 0.00 | 91 | 1018.7 |
| 20260831205539 | 69 | 280 | 0.0 | 1.0 | 0.00 | 0.00 | 0.00 | 90 | 1018.6 |
| 20260831205039 | 69 | 280 | 0.0 | 1.0 | 0.00 | 0.00 | 0.00 | 91 | 1018.6 |
| 20260831204543 | 69 | 280 | 0.0 | 1.0 | 0.00 | 0.00 | 0.00 | 90 | 1018.4 |
| 20260831204039 | 69 | 280 | 0.0 | 1.0 | 0.00 | 0.00 | 0.00 | 91 | 1018.3 |
| 20260831203538 | 69 | 280 | 0.0 | 2.0 | 0.00 | 0.00 | 0.00 | 90 | 1018.4 |
| 20260831203047 | 69 | 280 | 0.0 | 2.0 | 0.00 | 0.00 | 0.00 | 90 | 1018.3 |
| 20260831202540 | 69 | 280 | 0.0 | 0.0 | 0.00 | 0.00 | 0.00 | 90 | 1018.2 |
| 20260831202038 | 69 | 280 | 0.0 | 0.0 | 0.00 | 0.00 | 0.00 | 90 | 1018.1 |
| 20260831201538 | 69 | 280 | 0.0 | 0.0 | 0.00 | 0.00 | 0.00 | 90 | 1018.1 |
| 20260831201038 | 69 | 280 | 0.0 | 0.0 | 0.00 | 0.00 | 0.00 | 90 | 1018.0 |
| 20260831200538 | 69 | 262 | 0.0 | 0.0 | 0.00 | 0.00 | 0.00 | 89 | 1017.9 |
| 20260831200040 | 69 | 251 | 0.0 | 3.0 | 0.00 | 0.00 | 0.00 | 89 | 1017.9 |
| 20260831195538 | 69 | 251 | 1.0 | 4.0 | 0.00 | 0.00 | 0.00 | 89 | 1017.9 |
| 20260831195037 | 69 | 310 | 0.0 | 4.0 | 0.00 | 0.00 | 0.00 | 89 | 1017.9 |
| 20260831194538 | 69 | 271 | 2.0 | 4.0 | 0.00 | 0.00 | 0.00 | 89 | 1017.9 |
| 20260831194037 | 69 | 284 | 1.0 | 4.0 | 0.00 | 0.00 | 0.00 | 88 | 1017.9 |
| 20260831193537 | 69 | 284 | 1.0 | 4.0 | 0.00 | 0.00 | 0.00 | 88 | 1017.8 |
| 20260831193036 | 70 | 264 | 2.0 | 6.0 | 0.00 | 0.00 | 0.00 | 87 | 1017.8 |
| 20260831192535 | 70 | 277 | 3.0 | 6.0 | 0.00 | 0.00 | 0.00 | 86 | 1017.7 |
| 20260831192035 | 71 | 280 | 2.0 | 6.0 | 0.00 | 0.00 | 0.00 | 86 | 1017.8 |
| 20260831191549 | 71 | 272 | 2.0 | 7.0 | 0.00 | 0.00 | 0.00 | 86 | 1017.8 |
| 20260831191035 | 71 | 269 | 3.0 | 7.0 | 0.00 | 0.00 | 0.00 | 85 | 1017.8 |
| 20260831190535 | 72 | 294 | 2.0 | 7.0 | 0.00 | 0.00 | 0.00 | 84 | 1017.7 |
| 20260831190035 | 72 | 269 | 3.0 | 7.0 | 0.00 | 0.00 | 0.00 | 85 | 1017.7 |
| 20260831185535 | 72 | 285 | 3.0 | 7.0 | 0.00 | 0.00 | 0.00 | 85 | 1017.7 |
| 20260831185034 | 71 | 284 | 2.0 | 7.0 | 0.00 | 0.00 | 0.00 | 85 | 1017.7 |
| 20260831184535 | 71 | 259 | 4.0 | 9.0 | 0.00 | 0.00 | 0.00 | 85 | 1017.6 |
| 20260831184034 | 72 | 265 | 5.0 | 9.0 | 0.00 | 0.00 | 0.00 | 83 | 1017.5 |
| 20260831183534 | 72 | 260 | 4.0 | 8.0 | 0.00 | 0.00 | 0.00 | 83 | 1017.5 |
| 20260831183035 | 73 | 267 | 4.0 | 7.0 | 0.00 | 0.00 | 0.00 | 83 | 1017.5 |
| 20260831182534 | 73 | 263 | 3.0 | 7.0 | 0.00 | 0.00 | 0.00 | 82 | 1017.5 |
| 20260831182035 | 73 | 277 | 3.0 | 7.0 | 0.00 | 0.00 | 0.00 | 82 | 1017.5 |
| 20260831181533 | 73 | 281 | 3.0 | 7.0 | 0.00 | 0.00 | 0.00 | 81 | 1017.5 |
| 20260831181033 | 73 | 284 | 3.0 | 7.0 | 0.00 | 0.00 | 0.00 | 81 | 1017.5 |
| 20260831180533 | 73 | 286 | 2.0 | 8.0 | 0.00 | 0.00 | 0.00 | 82 | 1017.5 |
| 20260831180032 | 73 | 333 | 4.0 | 9.0 | 0.00 | 0.00 | 0.00 | 82 | 1017.6 |
| 20260831175532 | 73 | 269 | 6.0 | 9.0 | 0.00 | 0.00 | 0.00 | 81 | 1017.6 |
| 20260831175032 | 74 | 278 | 3.0 | 10.0 | 0.00 | 0.00 | 0.00 | 82 | 1017.6 |
| 20260831174532 | 74 | 243 | 4.0 | 10.0 | 0.00 | 0.00 | 0.00 | 81 | 1017.5 |
| 20260831174036 | 74 | 231 | 4.0 | 9.0 | 0.00 | 0.00 | 0.00 | 81 | 1017.4 |
| 20260831173532 | 74 | 229 | 4.0 | 9.0 | 0.00 | 0.00 | 0.00 | 82 | 1017.4 |
| 20260831173031 | 73 | 313 | 5.0 | 9.0 | 0.00 | 0.00 | 0.00 | 81 | 1017.3 |
| 20260831172530 | 73 | 236 | 4.0 | 10.0 | 0.00 | 0.00 | 0.00 | 81 | 1017.3 |
| 20260831172030 | 74 | 271 | 6.0 | 10.0 | 0.00 | 0.00 | 0.00 | 80 | 1017.4 |
| 20260831171531 | 74 | 338 | 2.0 | 8.0 | 0.00 | 0.00 | 0.00 | 80 | 1017.4 |
| 20260831171030 | 74 | 292 | 4.0 | 12.0 | 0.00 | 0.00 | 0.00 | 80 | 1017.5 |
| 20260831170531 | 73 | 252 | 6.0 | 12.0 | 0.00 | 0.00 | 0.00 | 80 | 1017.5 |
| 20260831170030 | 74 | 298 | 6.0 | 10.0 | 0.00 | 0.00 | 0.00 | 80 | 1017.4 |
| 20260831165529 | 74 | 298 | 5.0 | 10.0 | 0.00 | 0.00 | 0.00 | 80 | 1017.4 |
| 20260831165029 | 73 | 238 | 4.0 | 11.0 | 0.00 | 0.00 | 0.00 | 81 | 1017.5 |
| 20260831164541 | 73 | 269 | 7.0 | 13.0 | 0.00 | 0.00 | 0.00 | 80 | 1017.5 |
| 20260831164030 | 74 | 300 | 6.0 | 13.0 | 0.00 | 0.00 | 0.00 | 80 | 1017.4 |
| 20260831163529 | 74 | 278 | 7.0 | 13.0 | 0.00 | 0.00 | 0.00 | 79 | 1017.5 |
| 20260831163031 | 74 | 283 | 3.0 | 10.0 | 0.00 | 0.00 | 0.00 | 80 | 1017.5 |
| 20260831162531 | 74 | 276 | 3.0 | 10.0 | 0.00 | 0.00 | 0.00 | 80 | 1017.5 |
| 20260831162029 | 73 | 255 | 4.0 | 11.0 | 0.00 | 0.00 | 0.00 | 80 | 1017.4 |
| 20260831161527 | 74 | 286 | 7.0 | 11.0 | 0.00 | 0.00 | 0.00 | 79 | 1017.4 |
| 20260831161027 | 74 | 236 | 5.0 | 11.0 | 0.00 | 0.00 | 0.00 | 79 | 1017.5 |
| 20260831160528 | 74 | 322 | 7.0 | 10.0 | 0.00 | 0.00 | 0.00 | 79 | 1017.5 |
| 20260831160031 | 74 | 257 | 6.0 | 12.0 | 0.00 | 0.00 | 0.00 | 79 | 1017.5 |
| 20260831155527 | 74 | 262 | 7.0 | 12.0 | 0.00 | 0.00 | 0.00 | 78 | 1017.5 |
| 20260831155029 | 74 | 269 | 4.0 | 13.0 | 0.00 | 0.00 | 0.00 | 78 | 1017.5 |
| 20260831154526 | 74 | 279 | 8.0 | 13.0 | 0.00 | 0.00 | 0.00 | 77 | 1017.5 |
| 20260831154027 | 75 | 246 | 6.0 | 12.0 | 0.00 | 0.00 | 0.00 | 76 | 1017.4 |
| 20260831153525 | 75 | 265 | 5.0 | 11.0 | 0.00 | 0.00 | 0.00 | 77 | 1017.4 |
| 20260831153025 | 75 | 9 | 6.0 | 11.0 | 0.00 | 0.00 | 0.00 | 77 | 1017.5 |
| 20260831152524 | 75 | 288 | 4.0 | 10.0 | 0.00 | 0.00 | 0.00 | 78 | 1017.4 |
| 20260831152026 | 74 | 275 | 8.0 | 10.0 | 0.00 | 0.00 | 0.00 | 77 | 1017.5 |
| 20260831151523 | 74 | 277 | 3.0 | 10.0 | 0.00 | 0.00 | 0.00 | 78 | 1017.6 |
| 20260831151023 | 74 | 248 | 6.0 | 10.0 | 0.00 | 0.00 | 0.00 | 78 | 1017.7 |
| 20260831150524 | 74 | 182 | 4.0 | 12.0 | 0.00 | 0.00 | 0.00 | 78 | 1017.7 |
| 20260831150025 | 75 | 275 | 5.0 | 12.0 | 0.00 | 0.00 | 0.00 | 77 | 1017.7 |
| 20260831145523 | 74 | 253 | 7.0 | 12.0 | 0.00 | 0.00 | 0.00 | 79 | 1017.7 |
| 20260831145026 | 74 | 265 | 7.0 | 12.0 | 0.00 | 0.00 | 0.00 | 78 | 1017.8 |
| 20260831144522 | 74 | 236 | 7.0 | 12.0 | 0.00 | 0.00 | 0.00 | 77 | 1017.7 |
| 20260831144022 | 74 | 292 | 5.0 | 12.0 | 0.00 | 0.00 | 0.00 | 78 | 1017.7 |
| 20260831143522 | 74 | 184 | 6.0 | 11.0 | 0.00 | 0.00 | 0.00 | 77 | 1017.7 |
| 20260831143021 | 74 | 250 | 5.0 | 10.0 | 0.00 | 0.00 | 0.00 | 78 | 1017.8 |
| 20260831142520 | 74 | 274 | 3.0 | 11.0 | 0.00 | 0.00 | 0.00 | 78 | 1017.8 |
| 20260831142020 | 74 | 238 | 7.0 | 11.0 | 0.00 | 0.00 | 0.00 | 78 | 1017.9 |
| 20260831141521 | 73 | 257 | 4.0 | 11.0 | 0.00 | 0.00 | 0.00 | 78 | 1017.9 |
| 20260831141018 | 74 | 294 | 4.0 | 11.0 | 0.00 | 0.00 | 0.00 | 77 | 1017.9 |
| 20260831140517 | 74 | 271 | 7.0 | 12.0 | 0.00 | 0.00 | 0.00 | 78 | 1018.0 |
| 20260831140017 | 73 | 274 | 8.0 | 12.0 | 0.00 | 0.00 | 0.00 | 78 | 1018.0 |
| 20260831135517 | 73 | 293 | 4.0 | 12.0 | 0.00 | 0.00 | 0.00 | 79 | 1017.9 |
| 20260831135018 | 74 | 286 | 5.0 | 10.0 | 0.00 | 0.00 | 0.00 | 79 | 1018.1 |
| 20260831134519 | 73 | 322 | 4.0 | 10.0 | 0.00 | 0.00 | 0.00 | 78 | 1018.2 |